Location: ??????????
(54.4061°N, 22.6114°E)
Time: 08:05:42
(UTC+00:00)

ATLAS 5 CENTAUR R/B - Pass Details

Date: 23 October 2019
Orbit: 557 x 1102 km, 63.4° (Epoch: 11 November)

Event Time Altitude Azimuth Distance (km) Brightness Sun altitude
Rises 19:38:47 0° 303° (WNW) 3,102 6.1 -37.4°
Reaches altitude 10° 19:41:07 10° 311° (NW) 2,260 5.2 -37.6°
Enters shadow 19:43:18 24° 326° (NW) 1,566 4.0 -37.9°
